Flag for Martinique Weather past 2 weeks in Fort-de-France, Martinique

Now
77 °F

Clear.


Feels Like: 79 °F
Forecast: N/A
Wind: 5 mph from Northeast

Location: Le Lamentin Airport

Current Time: Jan 29, 2015 at 6:49:44 PM

Latest Report: Jan 29, 2015 at 6:30 PM


Visibility: N/A

Pressure: 29.95 "Hg

Humidity: 74%

Dew point: 68 °F

Location of Fort-de-FranceLocation

Historic Weather in Fort-de-France — Graph

°F

Fort-de-France temperature yesterday

Maximum temperature yesterday: 86 °F (at 12:30 PM)
Minimum temperature yesterday: 75 °F (at 1:00 AM)
Average temperature yesterday: 79 °F

Past Weeks' High & Low Weather Summary

 TemperatureHumidityPressure
High86 °F (Jan 17, 10:30 AM)100% (Jan 15, 4:00 AM)30.04 "Hg (Jan 15, 4:00 AM)
Low68 °F (Jan 19, 4:30 AM)49% (Jan 28, 1:00 PM)29.92 "Hg (Jan 16, 4:30 PM)
Average78 °F80%29.98 "Hg
* Reported Jan 14 6:00 PM — Jan 29 6:00 PM, Fort-de-France, Weather by CustomWeather, © 2014

Note: Actual official high and low records may vary slightly from our data, if they occured in-between our weather recording intervals... More about our weather records

Advertising

Fort-de-France weather history for previous 24 hours

 ConditionsComfort  
Time TempWeatherWind HumidityBarometerVisibility
6:00 PM
Jan 29
79 °FScattered clouds.6 mph70%29.95 "HgN/A
5:30 PM81 °FPassing clouds.12 mph66%29.92 "HgN/A
5:00 PM82 °FClear.10 mph62%29.92 "HgN/A
4:30 PM82 °FPassing clouds.12 mph58%29.92 "HgN/A
4:00 PM84 °FPassing clouds.13 mph58%29.92 "HgN/A
3:30 PM84 °FPassing clouds.12 mph58%29.92 "HgN/A
3:00 PM84 °FClear.13 mph58%29.92 "HgN/A
2:30 PM84 °FClear.14 mph58%29.92 "HgN/A
2:00 PM84 °FPassing clouds.13 mph58%29.92 "HgN/A
1:30 PM84 °FPassing clouds.12 mph58%29.95 "HgN/A
1:00 PM86 °FScattered clouds.14 mph55%29.95 "HgN/A
12:30 PM84 °FPassing clouds.15 mph62%29.98 "HgN/A
12:00 PM84 °FPassing clouds.13 mph58%29.98 "HgN/A
11:30 AM84 °FPartly sunny.14 mph58%30.01 "HgN/A
11:00 AM84 °FBroken clouds.14 mph58%30.01 "HgN/A
10:30 AM82 °FPassing clouds.15 mph62%30.01 "HgN/A
10:00 AM82 °FPassing clouds.16 mph62%30.01 "HgN/A
9:30 AM82 °FClear.15 mph62%30.01 "HgN/A
9:00 AM82 °FClear.15 mph58%30.01 "HgN/A
8:30 AM81 °FClear.10 mph66%30.01 "HgN/A
8:00 AM79 °FClear.8 mph70%29.98 "HgN/A
7:30 AM75 °FClear.6 mph78%29.98 "HgN/A
7:00 AM75 °FClear.7 mph74%29.98 "HgN/A
6:30 AM75 °FClear.9 mph74%29.95 "HgN/A
6:00 AM73 °FPassing clouds.8 mph83%29.95 "HgN/A
5:30 AM73 °FPartly cloudy.6 mph89%29.95 "HgN/A
5:00 AM73 °FMostly cloudy.5 mph89%29.95 "HgN/A
4:30 AM73 °FOvercast.6 mph89%29.92 "HgN/A
4:00 AM73 °FLight rain. Passing clouds.8 mph83%29.92 "HgN/A
3:30 AM73 °FPartly cloudy.10 mph78%29.92 "HgN/A
3:00 AM77 °FPassing clouds.7 mph74%29.95 "HgN/A
2:30 AM77 °FPassing clouds.8 mph74%29.95 "HgN/A
2:00 AM77 °FPassing clouds.5 mph74%29.95 "HgN/A
1:30 AM77 °FPassing clouds.6 mph74%29.95 "HgN/A
1:00 AM77 °FPassing clouds.6 mph79%29.95 "HgN/A
12:30 AM77 °FPassing clouds.5 mph79%29.95 "HgN/A
12:00 AM77 °FPassing clouds.3 mph74%29.95 "HgN/A
11:30 PM
Jan 28
75 °FClear.5 mph78%29.98 "HgN/A
11:00 PM75 °FPassing clouds.5 mph78%29.98 "HgN/A
10:30 PM75 °FPassing clouds.5 mph78%29.98 "HgN/A
10:00 PM75 °FPassing clouds.3 mph78%29.98 "HgN/A
9:30 PM77 °FPassing clouds.6 mph79%29.98 "HgN/A
9:00 PM77 °FPassing clouds.6 mph79%29.98 "HgN/A
8:30 PM77 °FPassing clouds.5 mph74%29.95 "HgN/A
8:00 PM77 °FClear.5 mph74%29.95 "HgN/A
7:30 PM77 °FPassing clouds.9 mph69%29.95 "HgN/A
7:00 PM79 °FPartly cloudy.7 mph74%29.95 "HgN/A
6:30 PM79 °FClear.7 mph74%29.92 "HgN/A
6:00 PM79 °FBroken clouds.12 mph70%29.92 "HgN/A
Weather by CustomWeather, © 2014

See weather overviewHow to use our weather pages